Find Starlink 4758

NORAD ID: 53820 Int'l Des: 2022-114 Owner: SPXS Country: US Constellation: starlink operational
LEOCIRCULAR

現在のビュー

3D地球を読み込み中...

About Starlink 4758

Starlink 4758 (NORAD 53820) is a starlink constellation satellite (v1.5) launched Sep 19, 2022 by SPXS of US. It operates in LEO, CIRCULAR orbit with a mass of 305.00 kg.

次回通過

Passes for default location (London). Set your location on the main map for personalized predictions.

高度履歴

Loading altitude history...

軌道要素

1 53820U 22114C 26263.93186301 -.00000425 00000-0 -12389-5 0 9999
2 53820 53.1590 138.0493 0002768 121.7275 238.3998 15.35406143222436
Epoch: Sep 20, 2026 • Age: 5 hours

現在のステータス

高度 463.5 km
遠地点 / 近地点 N/A
速度 7.64 km/s
衛星直下点 45.05°N, 135.54°E
打ち上げ日 Sep 19, 2022
運用期間 4 years
タイプ internet

技術仕様

分類 Payload
質量 305.00 kg
乾燥質量 290.00 kg
長さ 0.20 m
スパン 9.00 m
形状 ? Box + pan
製造者 SPXS
バスタイプ Starlink
フェーズステータス In Orbit
所有者/国 SPXS/US

Most Searched